Regional Weather Roundup
Issued by NWS

Home | Current Version | Previous Version | Text Only | Print | Product List | Glossary On
Versions: 1 2 3 4 5 6 7 8 9 10 11 12 13 14 15 16 17 18 19 20 21 22 23 24 25 26 27
000
ASUS42 KTBW 280317
RWRFL
FLORIDA REGIONAL WEATHER ROUNDUP
NATIONAL WEATHER SERVICE TAMPA BAY RUSKIN FL
1100 PM EDT MON MAR 27 2017

NOTE: "FAIR" INDICATES FEW OR NO CLOUDS BELOW 12,000 FEET WITH NO
SIGNIFICANT WEATHER AND/OR OBSTRUCTIONS TO VISIBILITY.

FLZ001>010-012>015-112-114-115-280400-
PANHANDLE FLORIDA

CITY           SKY/WX    TMP DP  RH WIND       PRES   REMARKS
PENSACOLA      MOCLDY    72  67  84 S12       30.00F
PENSACOLA NAS  MOCLDY    71  67  87 S9        30.00S
MILTON NAS     CLOUDY    69  67  93 S10       30.01
CRESTVIEW      CLOUDY    68  66  93 SW6       30.03R
DUKE FIELD     MOCLDY    69  67  93 S9        30.00S
VALPARAISO     MOCLDY    70  68  93 S8        30.01S
MARY ESTHER    MOCLDY    69  65  85 S8        30.00S
PANAMA CITY    CLOUDY    69  66  90 S7        30.03R
TYNDALL AFB    CLEAR     69  67  95 S8        30.04R
APALACHICOLA   CLEAR     69  68  96 SW6       30.03R

STATION/POSITION SKY/WX   TEMP    WIND        PRES    WAVE   SWELL
                          AIR SEA DIR/SP/G            HT/PER HT/PER
                          (F)     (DEG/KT/KT) (MB)    (FT/S) (FT/S)
30.1N   87.6W              70 70  160/ 10/ 12 1015.6    3/ 5   2/ 5
29.2N   88.2W              73 73  160/ 12/ 14 1016.0R   3/ 5
28.8N   86.0W              72 72              1016.7    2/ 5   2/ 5
PANAMA CITY BEAC           69 72  200/  5/  7 1017.5R
TOWER C                    68     220/  7/  8 1017.7R
28.5N   84.5W              71 70  220/  6/  8 1016.7    1/ 5   2/ 5

$$
FLZ011-016>038-118-127-128-134-139-239-280400-
NORTH FLORIDA

CITY           SKY/WX    TMP DP  RH WIND       PRES   REMARKS
MARIANNA       PTCLDY    69  60  73 SW8       30.02R
TALLAHASSEE    CLEAR     65  63  93 SW3       30.02R
PERRY          FOG       64  63  96 CALM      30.04R VSB 3/4
CROSS CITY     CLEAR     63  61  94 CALM      30.03S
LAKE CITY      FAIR      70  55  60 CALM      30.04S
GAINESVILLE    CLEAR     68  56  65 SE8       30.05R
WILLISTON      CLEAR     73  57  56 E5        30.05R
PALATKA        FAIR      64  59  82 E3        30.06R
MAYPORT NAS    PTCLDY    68  63  84 S6        30.05R
JACKSONVILLE   PTCLDY    66  61  84 SE7       30.04R
JAX NAS        PTCLDY    70  61  73 SE9       30.05R
FERNANDINA BEA FAIR      70  64  83 CALM      30.04S
ST AUGUSTINE   CLEAR     66  61  84 S3        30.07R

STATION/POSITION SKY/WX   TEMP    WIND        PRES    WAVE   SWELL
                          AIR SEA DIR/SP/G            HT/PER HT/PER
                          (F)     (DEG/KT/KT) (MB)    (FT/S) (FT/S)
SHELL POINT      NOT AVBL
KEATON BEACH               69     260/  9/  9 1016.6R
CEDAR KEY                  70     300/  4/  5 1017.3R
FERNANDINA                 68 68  140/  4/  7 1018.1R
30.7N   81.3W                 67                N/A     3/11   2/11
MAYPORT                    68 68  170/  3/  7 1017.9R
31.4N   80.9W              66 63  180/  6/  8 1017.4R   3/10   3/10
ST AUGUSTINE               69 71  170/  6/  7 1018.7R

$$
FLZ040-043>046-052-053-057-058-063-144-280400-
INTERIOR CENTRAL FLORIDA

CITY           SKY/WX    TMP DP  RH WIND       PRES   REMARKS
OCALA          CLEAR     70  54  56 CALM      30.06S
THE VILLAGES     N/A     70  59  68 CALM      29.96R
LEESBURG       CLEAR     69  60  73 SE8       30.06R
SANFORD        CLEAR     67  61  81 SE3       30.05S
ORLANDO EXEC   CLEAR     67  60  78 SE3       30.05S
ORLANDO INTL   PTCLDY    67  60  78 SE5       30.06R
KISSIMMEE      CLEAR     68  61  78 E6        30.07R
WINTER HAVEN   CLEAR     69  60  73 E7        30.07R
LAKELAND       CLEAR     70  61  73 E8        30.06R
BARTOW         FAIR      68  61  77 E5        30.06R
OKEECHOBEE     PTCLDY   N/A N/A N/A E3        30.05S

$$
FLZ041-047-054-059-064-141-147-280400-
EAST CENTRAL FLORIDA

CITY           SKY/WX    TMP DP  RH WIND       PRES   REMARKS
DAYTONA BEACH  CLEAR     65  62  90 CALM      30.05R
DELAND         CLEAR     64  59  82 CALM      30.05R
JFK SPACE CTR  CLEAR     62  61  95 SE5       30.03S
CAPE CANAVERAL CLEAR     68  60  77 E6        30.04R
PATRICK AFB    PTCLDY    71  65  81 E6        30.04S
MELBOURNE      PTCLDY    73  64  73 E7        30.05R
VERO BEACH     MOCLDY    72  64  76 E7        30.05R
FT PIERCE      PTCLDY    68  63  84 E6        30.04S
STUART         PTCLDY    73  61  64 E6        30.06R

STATION/POSITION SKY/WX   TEMP    WIND        PRES    WAVE   SWELL
                          AIR SEA DIR/SP/G            HT/PER HT/PER
                          (F)     (DEG/KT/KT) (MB)    (FT/S) (FT/S)
TRIDENT PIER               70 73   90/  4/  6 1018.7R
28.4N   80.5W                 72                N/A     2/10   2/11
27.5N   80.2W                 74                N/A     3/ 9   2/11

$$
FLZ050-056-061-142-242-148-248-149-249-151-251-155-255-
160-260-280400-
WEST CENTRAL FLORIDA

CITY           SKY/WX    TMP DP  RH WIND       PRES   REMARKS
CRYSTAL RIVER  FAIR      61  57  88 CALM      30.06R
INVERNESS      FAIR      63  59  88 CALM      30.07R
BROOKSVILLE    CLEAR     65  59  81 NE3       30.07R
CLEARWATER AIR FAIR      68  63  83 CALM      30.05R
ST PETE CLEARW CLEAR     70  62  76 N5        30.05R
TAMPA INTL     CLEAR     72  59  63 N5        30.06R
TAMPA EXEC     CLEAR     66  59  77 CALM      30.06R
PLANT CITY     CLEAR     72  63  73 CALM      30.07R
MACDILL AFB    CLEAR     69  61  77 N6        30.05R
PETER O KNIGHT CLEAR     72  59  64 NE5       30.06R
ST PETERSBURG  CLEAR     71  61  70 N6        30.03R
SARASOTA       PTCLDY    69  60  73 NE3       30.03R
VENICE         FAIR      70  63  78 N3        30.04R

STATION/POSITION SKY/WX   TEMP    WIND        PRES    WAVE   SWELL
                          AIR SEA DIR/SP/G            HT/PER HT/PER
                          (F)     (DEG/KT/KT) (MB)    (FT/S) (FT/S)
27.3N   84.2W                 72                N/A     2/ 4
CLEARWATER BEACH           71 72  340/  7/  8 1017.4R
MIDDLE TAMPA BAY           72      20/  8/ 10 1017.7R
VENICE                     70 72   10/  4/  5 1016.9R

$$
FLZ066-069-070-075>078-162-262-165-265-280400-
SOUTHWEST FLORIDA AND KEYS

CITY           SKY/WX    TMP DP  RH WIND       PRES   REMARKS
PUNTA GORDA    CLEAR     65  60  84 SE5       30.05R
FT MYERS       CLEAR     71  62  73 E5        30.03R
SOUTHWEST INTL CLEAR     70  59  68 SE6       30.03R
NAPLES         CLEAR     69  62  78 NE8       30.02R
IMMOKALEE      CLOUDY    68  57  68 E5        30.03S
MARATHON       CLEAR     76  65  68 E9        30.02R
KEY WEST NAS   CLEAR     74  65  73 E9        30.02R
KEY WEST INTL  CLEAR     75  66  73 E7        30.02R

STATION/POSITION SKY/WX   TEMP    WIND        PRES    WAVE   SWELL
                          AIR SEA DIR/SP/G            HT/PER HT/PER
                          (F)     (DEG/KT/KT) (MB)    (FT/S) (FT/S)
NAPLES                        74              1016.6R
26.0N   85.6W              76 78  110/ 12/ 14 1016.9R   3/ 7   2/ 7
DRY TORTUGAS               73      80/  9/ 10 1016.7R
SAND KEY                   76     110/ 11/ 13 1017.0R
LONG KEY                   75 77   80/ 12/ 14 1016.5R
MOLASSES REEF              75 78   60/  8/ 10 1016.9R

$$
FLZ067-068-071>074-168-172>174-280400-
SOUTHEAST FLORIDA

CITY           SKY/WX    TMP DP  RH WIND       PRES   REMARKS
W PALM BEACH   PTCLDY    73  59  61 E10       30.04S
BOCA RATON     PTCLDY    73  61  64 E9        30.03S
FT LAUDER-EXEC CLEAR     74  58  57 E8        30.03S
FT LAUDERDALE  PTCLDY    73  60  63 NE10      30.02S
POMPANO BEACH  PTCLDY    73  60  63 E8        30.03S
PEMBROKE PINES CLEAR     72  59  63 E7        30.05R
OPA LOCKA      CLEAR     70  59  68 E6        30.04R
MIAMI          PTCLDY    72  59  63 NE7       30.03S
WEST KENDALL   PTCLDY    69  58  67 NE5       30.03R
HOMESTEAD      PTCLDY    70  63  77 NE6       30.03R

STATION/POSITION SKY/WX   TEMP    WIND        PRES    WAVE   SWELL
                          AIR SEA DIR/SP/G            HT/PER HT/PER
                          (F)     (DEG/KT/KT) (MB)    (FT/S) (FT/S)
PORT EVERGLADES            74      70/ 10/ 14 1016.9R
VIRGINIA KEY               74      50/  7/ 10 1017.3R
LAKE WORTH                         90/ 10/ 14   N/A
FOWEY ROCKS                74 76   50/ 11/ 13 1017.5R
SETTLEMENT POINT           72      70/ 11/ 12 1017.5R

$$





USA.gov is the U.S. government's official web portal to all federal, state and local government web resources and services.